Wind_Speed
28 25 24 24 24 24 25 24 23 21 21 19 18 17 17 17 16 16 16 16 16 16 15 15 14 14 15 14 14 14 14 14 14 15 15 16 16 17 17 18 18 18 18 19
31 28 27 27 26 26 26 25 24 23 23 22 20 20 20 20 19 18 18 18 17 17 17 17 16 17 16 16 16 16 16 15 16 16 17 18 18 19 19 20 20 20 20 20
33 30 29 30 27 26 25 25 25 26 26 23 21 21 23 24 22 21 21 20 19 18 17 17 17 18 18 18 18 18 18 18 18 18 19 20 20 21 21 22 22 21 21 21
33 32 34 32 28 27 27 27 27 28 26 23 22 22 23 25 25 25 23 22 21 20 20 19 19 19 20 20 20 21 21 21 21 21 22 22 23 23 24 24 23 23 23 23
34 34 33 32 29 29 30 29 29 29 28 26 26 26 26 25 26 26 24 23 22 22 22 21 21 20 21 22 22 22 22 23 23 23 24 24 25 25 26 25 25 25 25 25
36 36 35 34 30 28 30 32 31 31 31 31 30 29 28 27 27 27 26 24 24 24 23 23 23 22 23 23 24 24 24 25 25 25 26 27 27 27 28 28 27 27 27 27
38 37 36 33 31 29 31 34 34 34 34 34 32 31 30 30 29 28 27 26 25 25 24 25 25 23 23 25 25 26 26 27 27 27 27 28 29 30 30 29 28 28 28 28
37 36 36 33 31 33 34 33 33 34 34 34 33 32 32 32 30 29 27 27 26 26 26 26 26 25 25 25 26 26 27 27 28 28 29 30 31 31 31 31 31 30 30 29
36 36 36 34 34 35 34 35 35 35 35 33 34 34 33 33 32 30 29 28 27 27 27 26 26 26 26 26 26 27 28 27 28 29 30 31 31 32 33 32 32 31 31 31
37 37 37 36 36 35 35 35 36 37 36 34 35 35 34 34 32 30 30 30 29 29 28 27 27 28 27 27 27 28 29 29 29 29 30 31 32 33 33 32 32 32 33 33
38 38 37 37 37 36 36 35 36 37 37 36 35 35 35 35 33 31 31 31 31 30 30 29 29 28 29 29 30 29 29 30 30 31 32 33 33 32 32 33 33 33 34 34
39 39 38 38 37 36 37 37 36 35 36 37 37 36 35 35 34 33 33 32 31 32 31 31 31 31 32 32 31 31 31 31 32 32 33 34 33 33 33 34 34 34 34 35
42 41 40 39 37 36 36 37 37 36 36 36 37 37 36 36 35 34 34 33 33 33 33 33 32 32 32 32 32 32 32 32 33 33 34 34 34 34 34 35 35 35 35 35
40 41 40 39 38 38 37 37 37 37 36 36 36 36 36 36 36 35 35 34 34 34 34 34 34 34 33 32 33 33 33 34 35 35 35 34 35 35 35 36 36 36 36 36
38 40 40 39 37 37 37 36 36 36 36 36 36 37 37 36 35 35 36 36 36 35 34 34 34 33 33 33 34 33 34 35 35 35 35 34 35 35 36 36 36 36 37 38
36 37 39 38 37 36 35 35 35 36 37 36 36 36 36 35 35 35 35 36 35 35 35 34 33 33 34 34 34 34 34 34 34 34 35 35 35 36 36 36 37 37 37 37
32 33 34 35 35 35 35 34 36 36 36 36 35 34 34 34 34 34 34 34 34 35 35 35 34 33 33 34 35 35 35 34 34 34 35 35 36 36 36 37 37 37 36 36
30 30 31 32 33 33 34 34 35 34 33 33 33 33 33 33 33 33 34 33 33 34 34 34 34 35 34 34 34 34 34 34 34 35 35 35 35 36 37 37 36 36 35 35
29 29 30 31 32 32 32 33 33 32 32 33 33 33 32 32 32 33 34 34 34 34 34 34 34 34 34 34 34 34 34 34 34 35 36 36 36 36 36 36 35 34 34 34
29 28 28 29 30 30 30 30 30 31 31 32 32 32 32 32 33 33 34 34 34 34 34 35 34 33 33 33 33 33 34 34 34 34 35 36 36 35 35 35 35 34 34 34
26 27 27 27 27 27 28 28 28 29 30 30 31 32 32 32 32 33 33 33 33 33 33 33 33 33 33 33 33 33 32 32 33 34 34 34 34 33 33 33 34 33 33 33
23 23 24 24 25 25 26 26 26 26 27 27 28 29 30 31 31 31 31 32 32 32 32 32 32 32 32 32 32 32 32 32 32 32 32 32 32 33 33 33 33 33 32 31
20 21 21 22 23 24 24 24 24 25 25 26 26 27 27 27 28 28 28 29 30 30 31 30 30 31 31 31 31 30 30 31 31 31 31 31 31 32 33 32 32 32 32 32
17 19 20 21 22 23 23 23 24 24 25 25 26 26 26 26 26 27 27 27 28 28 29 30 29 30 30 30 30 30 30 30 30 31 31 31 31 32 31 31 31 31 32 32
16 16 18 18 19 21 21 22 23 23 23 24 25 25 25 25 26 26 27 27 27 27 27 27 27 28 29 29 29 30 30 30 30 30 31 31 31 32 32 32 32 32 32 32
14 14 15 16 17 18 19 20 21 21 22 22 23 23 23 24 25 25 25 26 26 25 25 25 26 27 28 28 29 30 29 29 29 29 30 31 31 31 30 31 31 30 30 30
12 14 15 15 16 16 16 18 19 19 19 19 20 21 21 22 23 23 23 23 24 24 24 25 25 26 27 28 28 28 27 27 28 29 30 30 29 29 28 28 28 29 29 29
Wind_Direction
221 214 219 227 231 231 229 232 241 246 249 248 251 253 257 255 259 264 264 266 271 278 281 284 288 291 295 295 301 305 309 312 313 317 320 321 321 321 321 320 321 321 322 322
224 218 220 224 228 232 232 231 234 243 244 242 250 254 255 256 254 258 261 263 268 273 276 277 281 285 287 290 295 299 304 306 309 312 314 316 317 317 316 316 316 315 315 316
226 223 226 226 225 228 235 238 237 242 247 248 247 251 254 256 258 259 263 267 269 273 272 274 278 279 282 285 289 293 298 302 303 305 308 311 312 311 311 310 310 310 310 310
228 226 229 228 225 227 232 236 239 244 246 245 248 253 255 260 262 264 266 269 269 270 273 276 278 281 280 279 283 288 294 299 301 302 304 306 307 308 307 306 306 306 306 306
228 230 232 231 228 228 231 234 234 240 244 244 246 250 255 257 261 264 266 268 269 271 272 274 277 278 278 278 281 286 291 296 298 299 301 302 302 303 303 302 302 303 304 303
228 230 231 232 231 232 234 236 234 237 240 242 245 248 253 256 259 262 263 265 268 269 270 271 274 277 277 277 279 283 288 292 294 296 298 300 300 300 302 300 301 302 304 303
229 231 232 232 233 232 234 237 236 238 240 242 245 248 252 255 257 260 262 263 265 267 269 272 274 275 275 276 278 282 285 288 290 292 296 298 299 299 300 300 300 300 301 301
230 231 232 230 233 232 234 238 239 240 240 243 246 249 250 253 255 258 261 262 264 267 269 272 274 274 276 277 280 283 286 288 290 291 293 296 297 298 299 300 300 299 298 298
233 232 233 230 232 234 235 238 239 241 243 245 246 249 251 253 254 256 260 261 263 265 268 270 272 275 277 278 282 284 285 287 289 290 292 294 296 298 298 298 298 298 298 298
231 232 234 234 234 235 237 239 240 241 242 244 247 248 251 253 255 256 258 260 263 264 267 271 272 273 275 277 280 282 284 286 288 290 292 293 295 297 298 298 297 297 298 298
232 234 236 238 238 239 240 242 243 243 242 244 246 248 251 255 256 258 259 260 262 264 267 269 271 272 274 276 279 283 285 287 288 290 291 293 295 296 296 297 297 298 298 297
233 234 237 240 241 241 242 243 244 244 246 246 247 249 252 253 254 257 258 260 263 264 267 268 270 272 273 275 279 281 283 286 288 290 292 294 295 295 296 297 298 299 298 299
234 237 240 242 243 244 245 245 246 246 248 249 251 251 252 253 254 256 257 259 261 263 265 267 269 271 273 275 278 280 283 285 286 289 292 293 294 295 295 296 296 297 298 298
236 238 240 242 245 245 246 246 246 247 249 250 252 253 254 255 255 255 256 258 260 262 264 266 268 270 272 274 275 278 281 283 285 288 290 291 293 294 294 295 295 295 296 296
236 236 238 242 244 245 246 247 247 248 249 250 251 253 254 255 255 255 255 257 258 261 263 265 266 268 270 271 274 278 281 284 286 288 289 290 293 294 295 296 296 295 294 294
236 237 239 240 242 243 244 245 246 247 248 249 251 252 254 255 255 255 255 256 257 259 260 262 264 267 270 272 275 278 281 285 287 288 288 290 292 293 295 295 296 296 295 295
236 237 237 237 239 242 243 246 247 250 250 248 250 252 253 254 254 254 255 257 257 258 260 261 262 266 270 274 277 279 281 284 286 288 289 291 292 294 295 296 296 296 296 296
235 236 237 239 240 243 245 247 249 250 249 248 251 251 249 251 253 254 254 256 257 257 259 262 265 267 270 273 276 278 280 282 285 287 289 290 292 294 294 295 295 295 296 297
234 236 239 241 242 244 247 247 248 249 249 250 251 251 250 249 250 251 253 254 256 257 258 261 265 268 270 272 274 276 279 281 284 287 289 290 291 293 294 294 294 295 296 298
235 237 241 243 243 245 246 246 248 248 249 250 249 249 249 249 250 252 254 255 257 258 260 262 264 266 268 271 274 277 280 283 285 287 289 290 291 292 293 293 294 294 296 298
237 238 240 241 242 244 246 247 248 249 249 250 250 251 250 251 251 251 252 255 257 257 259 261 263 265 268 271 274 277 279 283 286 288 289 291 292 294 295 296 295 295 296 296
238 238 237 238 241 243 246 247 248 248 249 251 251 252 251 251 251 251 253 255 255 255 258 260 262 265 268 271 274 276 279 283 286 288 289 290 293 295 296 298 298 298 297 297
238 238 240 240 241 243 246 246 246 246 247 249 250 252 252 251 251 251 252 253 256 257 260 261 263 266 269 271 274 277 281 284 286 287 288 290 293 295 297 297 298 299 299 299
240 240 242 243 244 244 244 245 247 246 246 248 249 249 250 251 251 253 254 256 256 258 260 261 263 265 268 271 274 278 281 284 286 288 290 293 295 297 297 298 298 298 298 298
241 242 241 241 242 242 244 245 247 247 246 248 249 248 251 253 254 256 258 258 258 260 261 263 265 266 269 273 276 278 280 283 285 288 290 292 294 296 297 296 297 297 297 298
240 242 241 240 241 243 246 248 249 248 248 249 250 251 251 254 256 257 257 258 260 262 263 263 266 269 272 274 276 277 279 281 284 288 291 294 295 295 295 296 297 299 300 301
243 244 242 239 240 244 247 247 248 248 248 250 252 253 254 256 258 258 258 259 259 263 265 266 270 273 273 274 275 277 280 283 286 289 292 294 294 294 295 298 300 302 303 304
Height
5867 5873 5878 5881 5884 5888 5891 5894 5896 5898 5898 5899 5899 5901 5902 5903 5904 5905 5906 5906 5906 5906 5906 5906 5905 5905 5905 5904 5904 5903 5902 5901 5899 5898 5897 5895 5894 5892 5890 5888 5886 5884 5882 5880
5860 5865 5870 5874 5878 5882 5885 5889 5892 5893 5892 5894 5896 5897 5898 5900 5901 5901 5901 5902 5902 5902 5902 5902 5902 5902 5902 5901 5901 5900 5899 5898 5896 5895 5894 5892 5891 5889 5887 5885 5883 5881 5879 5877
5854 5860 5863 5866 5872 5876 5880 5883 5886 5887 5887 5889 5891 5892 5892 5893 5895 5896 5897 5897 5898 5898 5897 5897 5898 5898 5898 5898 5897 5897 5895 5894 5893 5891 5890 5888 5887 5885 5883 5881 5879 5877 5875 5873
5847 5852 5855 5862 5867 5870 5874 5877 5880 5881 5882 5884 5885 5885 5886 5888 5890 5890 5891 5892 5893 5893 5893 5892 5893 5893 5893 5893 5893 5892 5891 5890 5889 5887 5886 5884 5882 5880 5878 5876 5874 5872 5870 5868
5840 5844 5848 5854 5859 5862 5865 5868 5872 5875 5876 5878 5880 5880 5881 5882 5884 5885 5886 5886 5887 5887 5888 5888 5888 5888 5888 5888 5888 5887 5886 5885 5883 5882 5880 5879 5877 5874 5872 5870 5868 5867 5865 5863
5832 5836 5840 5846 5851 5854 5858 5859 5863 5866 5868 5870 5871 5873 5875 5876 5878 5878 5878 5881 5881 5882 5882 5881 5882 5882 5882 5882 5881 5881 5880 5879 5877 5876 5874 5872 5870 5868 5866 5864 5862 5860 5858 5856
5823 5827 5831 5837 5842 5847 5850 5851 5854 5856 5859 5862 5863 5866 5868 5869 5871 5872 5873 5874 5875 5876 5876 5876 5876 5876 5876 5876 5875 5874 5873 5872 5871 5869 5867 5865 5863 5861 5859 5857 5855 5853 5851 5849
5815 5819 5825 5829 5832 5836 5838 5841 5845 5847 5849 5853 5856 5858 5860 5862 5864 5865 5866 5868 5868 5869 5870 5870 5869 5869 5869 5869 5868 5867 5866 5865 5864 5862 5861 5859 5857 5854 5852 5849 5848 5846 5844 5842
5808 5812 5816 5819 5823 5826 5829 5833 5837 5839 5842 5846 5848 5850 5852 5854 5856 5858 5859 5861 5861 5862 5862 5863 5863 5862 5862 5862 5861 5860 5859 5858 5857 5855 5853 5851 5849 5847 5844 5842 5840 5838 5835 5833
5798 5802 5807 5811 5814 5817 5821 5825 5828 5831 5834 5837 5840 5842 5844 5846 5848 5850 5851 5853 5853 5854 5855 5855 5855 5855 5854 5854 5854 5853 5852 5851 5849 5848 5846 5844 5841 5839 5836 5834 5832 5829 5827 5825
5788 5793 5798 5802 5805 5809 5812 5816 5819 5822 5825 5828 5831 5834 5836 5837 5840 5842 5843 5845 5845 5846 5846 5847 5847 5847 5847 5846 5846 5845 5844 5843 5841 5840 5838 5836 5834 5831 5829 5827 5824 5821 5818 5816
5779 5784 5788 5792 5796 5800 5803 5806 5810 5813 5816 5819 5822 5825 5827 5829 5831 5833 5834 5836 5837 5837 5838 5839 5839 5839 5838 5837 5837 5836 5835 5834 5833 5831 5830 5828 5825 5823 5820 5818 5815 5813 5810 5807
5770 5774 5778 5783 5788 5791 5794 5797 5801 5804 5807 5810 5812 5815 5817 5819 5822 5824 5825 5826 5828 5828 5829 5830 5830 5830 5830 5829 5829 5828 5827 5826 5825 5823 5821 5818 5816 5814 5812 5810 5807 5804 5801 5798
5761 5765 5769 5774 5778 5782 5785 5788 5791 5794 5798 5800 5803 5805 5807 5809 5812 5814 5815 5817 5818 5819 5820 5821 5821 5821 5821 5821 5820 5820 5819 5817 5815 5814 5812 5810 5807 5805 5802 5800 5797 5795 5792 5789
5752 5756 5760 5765 5768 5772 5776 5779 5782 5785 5788 5790 5793 5795 5797 5799 5801 5803 5805 5807 5808 5809 5810 5811 5811 5812 5811 5811 5811 5810 5810 5808 5806 5804 5802 5800 5798 5796 5793 5790 5787 5785 5782 5779
5743 5747 5751 5756 5759 5763 5767 5769 5772 5775 5777 5780 5782 5785 5787 5789 5791 5793 5795 5796 5798 5799 5800 5801 5802 5802 5802 5802 5802 5801 5800 5799 5797 5795 5793 5791 5789 5786 5784 5781 5778 5775 5772 5769
5734 5738 5743 5746 5750 5754 5758 5760 5763 5765 5767 5770 5773 5775 5777 5779 5781 5783 5785 5786 5787 5789 5790 5791 5792 5793 5793 5793 5793 5792 5791 5790 5788 5786 5784 5782 5780 5777 5774 5771 5768 5765 5762 5758
5727 5731 5735 5738 5742 5745 5749 5751 5754 5756 5757 5761 5763 5764 5766 5769 5771 5773 5775 5776 5777 5779 5781 5782 5783 5783 5784 5784 5783 5783 5781 5780 5779 5777 5775 5773 5770 5768 5764 5761 5758 5755 5752 5750
5720 5724 5728 5731 5734 5737 5740 5742 5744 5747 5750 5752 5754 5755 5757 5760 5762 5763 5765 5766 5768 5770 5772 5773 5773 5774 5774 5775 5774 5773 5771 5770 5769 5767 5765 5763 5760 5758 5755 5752 5749 5746 5743 5740
5714 5718 5721 5724 5726 5729 5731 5734 5737 5739 5741 5743 5745 5746 5749 5751 5752 5754 5755 5757 5759 5760 5762 5763 5764 5765 5765 5765 5765 5764 5762 5761 5759 5757 5755 5753 5750 5748 5745 5742 5739 5737 5734 5731
5708 5711 5714 5716 5719 5722 5724 5726 5729 5731 5733 5735 5736 5738 5740 5742 5743 5745 5746 5749 5750 5751 5753 5754 5755 5756 5756 5756 5756 5755 5754 5752 5750 5748 5746 5743 5741 5738 5736 5733 5730 5727 5725 5722
5702 5705 5707 5710 5712 5715 5717 5719 5722 5724 5726 5728 5729 5730 5732 5733 5735 5736 5738 5740 5741 5743 5744 5745 5746 5747 5747 5747 5746 5746 5745 5743 5741 5739 5736 5734 5731 5729 5727 5724 5721 5718 5716 5713
5698 5700 5702 5704 5707 5709 5711 5713 5715 5717 5719 5720 5722 5723 5724 5726 5727 5729 5731 5732 5733 5735 5736 5737 5738 5738 5739 5738 5738 5737 5736 5735 5733 5731 5728 5726 5723 5721 5718 5716 5713 5710 5707 5705
5693 5695 5697 5699 5702 5704 5705 5707 5709 5711 5713 5714 5716 5717 5717 5719 5721 5722 5723 5725 5726 5727 5728 5729 5730 5730 5730 5730 5729 5729 5728 5726 5725 5723 5720 5718 5715 5713 5710 5708 5704 5701 5699 5696
5690 5691 5693 5695 5697 5698 5700 5702 5703 5704 5706 5708 5709 5710 5711 5713 5715 5716 5717 5718 5719 5720 5721 5722 5722 5722 5722 5722 5721 5720 5719 5718 5716 5714 5712 5710 5708 5705 5702 5700 5697 5694 5691 5688
5686 5688 5689 5690 5692 5694 5696 5697 5698 5699 5701 5702 5703 5705 5706 5707 5708 5709 5710 5711 5712 5713 5713 5714 5714 5715 5714 5714 5713 5712 5711 5710 5708 5706 5705 5702 5700 5697 5694 5691 5689 5686 5683 5680
5683 5685 5686 5687 5689 5690 5691 5692 5693 5695 5696 5697 5698 5699 5700 5701 5702 5703 5703 5704 5705 5706 5707 5707 5707 5707 5706 5706 5705 5704 5703 5702 5700 5699 5697 5694 5692 5689 5687 5684 5681 5679 5676 5673